Grand Forks AFB, ND

3:11 AM CDT on October 18, 2017 (GMT -0500)
Grand Forks Air Force Base

Weather History for KRDR - January, 2014

Change the Weather History Date:

Saturday, January 18, 2014

  Actual Average Record
Temperature  
Mean Temperature 22 °F -  
Max Temperature 36 °F 13 °F 37 °F (2005)
Min Temperature 8 °F 0 °F -16 °F (2011)
Degree Days  
Heating Degree Days 43    
Moisture  
Dew Point 13 °F    
Average Humidity 85    
Maximum Humidity 93    
Minimum Humidity 70    
Precipitation  
Precipitation 0.00 in - - ()
Sea Level Pressure  
Sea Level Pressure 29.71 in    
Wind  
Wind Speed 11 mph (North)    
Max Wind Speed 23 mph    
Max Gust Speed 32 mph    
Visibility 8 miles    
Events Snow    
Averages and records for this station are not official NWS values.
T = Trace of Precipitation, MM = Missing Value Source: NWS Daily Summary

Daily Weather History Graph

Daily Weather History Graph

Search for Another Location

Airport or City:

Trip Planner

Search our weather history database for the weather conditions in past years. The results will help you decide how hot, cold, wet, or windy it might be!

Date:

Astronomy

Jan. 18, 2014 Rise Set
Actual Time 8:12 AM CST 5:08 PM CST
Civil Twilight 7:37 AM CST 5:43 PM CST
Nautical Twilight 6:59 AM CST 6:21 PM CST
Astronomical Twilight 6:22 AM CST 6:58 PM CST
Moon 8:07 PM CST 8:58 AM CST
Length of Visible Light 10h 05m
Length of Day
8h 56m
Waning Gibbous, 94% of the Moon is Illuminated
Jan 18
Waning Gibbous
Jan 23
Last Quarter
Jan 30
New
Feb 6
First Quarter
Feb 14
Full

Hourly Weather History & Observations

Time (CST) Temp. Windchill Dew Point Humidity Pressure Visibility Wind Dir Wind Speed Gust Speed Precip Events Conditions
12:03 AM 14.0 °F 2.0 °F 10.4 °F 86% 29.42 in 2.0 mi SSE 9.2 mph - N/A Snow Light Snow
12:08 AM 14.0 °F 5.1 °F 10.4 °F 86% 29.42 in 4.0 mi SSE 5.8 mph - N/A Snow Light Snow
12:13 AM 14.0 °F 2.9 °F 12.2 °F 93% 29.41 in 5.0 mi SSE 8.1 mph - N/A Snow Light Snow
12:21 AM 14.0 °F 2.0 °F 12.2 °F 93% 29.41 in 4.0 mi SSE 9.2 mph - N/A Snow Light Snow
12:26 AM 14.0 °F 2.0 °F 12.2 °F 93% 29.41 in 7.0 mi SE 9.2 mph - N/A Snow Light Snow
12:36 AM 14.0 °F 2.0 °F 12.2 °F 93% 29.41 in 4.0 mi SE 9.2 mph - N/A Snow Light Snow
12:46 AM 14.0 °F 1.2 °F 12.2 °F 93% 29.41 in 6.0 mi SE 10.4 mph - N/A Snow Light Snow
12:54 AM 14.0 °F 2.9 °F 12.2 °F 93% 29.41 in 3.0 mi SE 8.1 mph - N/A   Overcast
12:58 AM 14.7 °F 3.8 °F 12.0 °F 89% 29.49 in 3.0 mi SE 8.1 mph - 0.00 in   Overcast
1:09 AM 14.0 °F 2.9 °F 12.2 °F 93% 29.43 in 5.0 mi ESE 8.1 mph - N/A   Overcast
1:19 AM 14.0 °F 2.9 °F 12.2 °F 93% 29.43 in 6.0 mi East 8.1 mph - N/A   Overcast
1:24 AM 14.0 °F 3.9 °F 12.2 °F 93% 29.44 in 9.0 mi East 6.9 mph - N/A   Overcast
1:29 AM 14.0 °F 3.9 °F 12.2 °F 93% 29.44 in 8.0 mi East 6.9 mph - N/A   Overcast
1:39 AM 14.0 °F 2.9 °F 12.2 °F 93% 29.45 in 10.0 mi East 8.1 mph - N/A   Overcast
1:54 AM 15.8 °F 4.2 °F 12.2 °F 86% 29.46 in 7.0 mi ENE 9.2 mph - N/A   Overcast
1:58 AM 15.3 °F 3.5 °F 12.6 °F 89% 29.54 in 6.0 mi ENE 9.2 mph - N/A   Overcast
1:59 AM 15.8 °F 5.1 °F 12.2 °F 86% 29.47 in 6.0 mi ENE 8.1 mph - N/A Snow Light Snow
2:49 AM 14.0 °F 0.5 °F 12.2 °F 93% 29.54 in 5.0 mi NNE 11.5 mph - N/A Snow Light Snow
2:58 AM 15.1 °F -0.1 °F 12.7 °F 90% 29.62 in 4.0 mi NNE 15.0 mph - 0.00 in Snow Light Snow
3:08 AM 15.8 °F 1.4 °F 14.0 °F 93% 29.56 in 6.0 mi NNE 13.8 mph - N/A Snow Light Snow
3:09 AM 15.8 °F 1.4 °F 14.0 °F 93% 29.56 in 6.0 mi NNE 13.8 mph - N/A Snow Light Snow
3:14 AM 15.8 °F 1.4 °F 14.0 °F 93% 29.57 in 7.0 mi NNE 13.8 mph - N/A Snow Light Snow
3:24 AM 15.8 °F 0.3 °F 14.0 °F 93% 29.58 in 10.0 mi NE 16.1 mph - N/A Snow Light Snow
3:34 AM 15.8 °F -0.2 °F 12.2 °F 86% 29.60 in 10.0 mi NE 17.3 mph - N/A   Overcast
3:39 AM 15.8 °F -1.1 °F 12.2 °F 86% 29.61 in 10.0 mi NE 19.6 mph - N/A   Overcast
3:44 AM 15.8 °F 0.3 °F 12.2 °F 86% 29.62 in 10.0 mi NE 16.1 mph - N/A   Overcast
3:54 AM 15.8 °F 0.3 °F 12.2 °F 86% 29.63 in 10.0 mi NE 16.1 mph - N/A   Overcast
3:58 AM 15.1 °F -0.6 °F 11.5 °F 86% 29.71 in 10.0 mi NE 16.1 mph - 0.00 in   Overcast
4:18 AM 14.0 °F -2.0 °F 10.4 °F 86% 29.66 in 10.0 mi NE 16.1 mph - N/A   Overcast
4:58 AM 13.1 °F -3.1 °F 9.1 °F 84% 29.78 in 10.0 mi NNE 16.1 mph - N/A   Overcast
5:58 AM 11.8 °F -4.8 °F 8.1 °F 85% 29.85 in 10.0 mi North 16.1 mph - N/A   Overcast
6:29 AM 12.2 °F -4.8 °F 8.6 °F 85% 29.81 in 10.0 mi North 17.3 mph - N/A   Overcast
6:58 AM 12.2 °F -5.3 °F 8.4 °F 85% 29.92 in 10.0 mi North 18.4 mph 25.3 mph N/A   Overcast
7:58 AM 9.7 °F -5.7 °F 5.7 °F 84% 29.96 in 10.0 mi North 12.7 mph - N/A   Mostly Cloudy
8:43 AM 10.4 °F -4.1 °F 5.0 °F 79% 29.92 in 10.0 mi North 11.5 mph - N/A   Overcast
8:58 AM 9.9 °F -5.5 °F 5.4 °F 82% 30.01 in 10.0 mi North 12.7 mph - N/A   Overcast
9:08 AM 8.6 °F -6.3 °F 5.0 °F 85% 29.94 in 10.0 mi North 11.5 mph - N/A   Mostly Cloudy
9:13 AM 8.6 °F -7.0 °F 5.0 °F 85% 29.94 in 10.0 mi North 12.7 mph - N/A   Scattered Clouds
9:51 AM 10.4 °F -3.3 °F 5.0 °F 79% 29.96 in 10.0 mi North 10.4 mph - N/A Snow Light Snow
9:58 AM 10.4 °F -2.4 °F 5.4 °F 80% 30.03 in 10.0 mi North 9.2 mph - 0.00 in Snow Light Snow
10:25 AM 10.4 °F -3.3 °F 6.8 °F 85% 29.98 in 10.0 mi North 10.4 mph - N/A   Overcast
10:30 AM 12.2 °F 0.7 °F 6.8 °F 79% 29.98 in 10.0 mi North 8.1 mph - N/A   Overcast
10:58 AM 12.6 °F 3.4 °F 7.5 °F 80% 30.06 in 10.0 mi NNW 5.8 mph - 0.00 in   Overcast
11:18 AM 14.0 °F 6.5 °F 8.6 °F 79% 29.96 in 10.0 mi WNW 4.6 mph - N/A   Overcast
11:33 AM 14.0 °F 8.2 °F 8.6 °F 79% 29.95 in 10.0 mi NW 3.5 mph - N/A   Overcast
11:58 AM 15.3 °F 4.4 °F 10.0 °F 80% 30.04 in 10.0 mi NW 8.1 mph - N/A   Overcast
12:08 PM 15.8 °F 5.1 °F 10.4 °F 79% 29.97 in 10.0 mi NW 8.1 mph - N/A   Overcast
12:58 PM 17.4 °F 7.1 °F 11.5 °F 78% 30.02 in 10.0 mi West 8.1 mph - N/A   Overcast
1:23 PM 19.4 °F 10.4 °F 12.2 °F 74% 29.91 in 10.0 mi WSW 6.9 mph - N/A   Overcast
1:33 PM 19.4 °F 8.6 °F 14.0 °F 80% 29.91 in 10.0 mi WSW 9.2 mph - N/A   Overcast
1:58 PM 20.3 °F 9.0 °F 15.1 °F 80% 29.97 in 10.0 mi WNW 10.4 mph - N/A   Overcast
2:08 PM 21.2 °F 10.1 °F 15.8 °F 80% 29.90 in 10.0 mi West 10.4 mph - N/A   Overcast
2:58 PM 22.6 °F 12.6 °F 17.6 °F 81% 29.95 in 10.0 mi West 9.2 mph - N/A   Overcast
3:58 PM 22.6 °F 13.4 °F 18.0 °F 82% 29.91 in 10.0 mi SW 8.1 mph - N/A   Scattered Clouds
4:58 PM 23.4 °F 14.3 °F 19.4 °F 85% 29.90 in 10.0 mi WSW 8.1 mph - N/A   Overcast
5:58 PM 25.5 °F 16.9 °F 21.6 °F 85% 29.83 in 10.0 mi WSW 8.1 mph - N/A   Overcast
6:58 PM 27.9 °F 18.4 °F 23.9 °F 85% 29.75 in 10.0 mi WSW 10.4 mph - N/A   Mostly Cloudy
7:58 PM 32.4 °F 19.7 °F 26.4 °F 79% 29.71 in 10.0 mi West 23.0 mph 31.1 mph N/A   Clear
8:58 PM 34.0 °F 23.0 °F 26.2 °F 73% 29.65 in 10.0 mi West 18.4 mph 27.6 mph N/A   Clear
9:58 PM 33.4 °F 21.4 °F 26.4 °F 75% 29.59 in 10.0 mi West 21.9 mph - N/A   Mostly Cloudy
10:58 PM 36.0 °F 24.4 °F 27.0 °F 70% 29.55 in 10.0 mi WNW 23.0 mph 32.2 mph N/A   Clear
11:58 PM 36.0 °F 25.6 °F 27.3 °F 71% 29.53 in 10.0 mi WNW 18.4 mph 26.5 mph N/A   Clear